Погода в Смолином

Россия / Владимирская область     56°04′32″N   41°24′34″E
темп.,
°C
ветер,
м/с
пор.,
м/с
влажн.,
%
обл.,
%
осадки,
мм/ч
давл.,
гПа
погр.,
м
8 марта, пн
пн800:00−11з238967 0.0 99327
03:00−7з4109283 0.6 995652
06:00−10з4109486 0.1 995287
09:00−9зюз359393 0.1 996256
12:00−6зсз2487100 0.1 997631
15:00−5зсз467999 0.3 999941
18:00−9зсз398964 0.1 1002273
21:00−11сз389551 0.1 1005277
9 марта, вт
вт900:00−14сз259880 0.1 1007123
03:00−16сз259880 0.1 100999
06:00−17ссз379889 0.0 1011157
09:00−16ссз359492 0.1 1013266
12:00−13ссз3588100 0.0 1014441
15:00−12ссз4686100 0.1 1015653
18:00−15ссз3892100 0.1 1016481
21:00−18ссз3995100 0.1 1019404
10 марта, ср
ср1000:00−20ссз379799 0.1 1020270
03:00−22ссз3798100 0.1 1022242
06:00−25ссз3897100 0.0 1024238
09:00−24ссз379385 0.0 1025291
12:00−18ссз468421 0.0 1026521
15:00−15ссз477710 0.0 1026778
18:00−18зсз389476 0.0 1026239
21:00−18зсз3109586 0.0 1027378
11 марта, чт
чт1100:00−20сз369998 0.1 1028135
03:00−22сз3510097 0.1 102999
06:00−22зсз369942 0.0 1029106
09:00−17зсз479331 0.0 1030241
12:00−11сз478837 0.0 1029357
15:00−8сз468826 0.0 1029437
18:00−12зсз369578 0.0 1029126
21:00−15зсз239439 0.0 103042
12 марта, пт
пт1200:00−16з23940 0.0 103123
03:00−17зюз23970 0.0 103032
06:00−19юз23970 0.0 103070
09:00−14ююз36910 0.0 1030261
12:00−9ююз59770 0.0 1028662
15:00−8ююз510740 0.0 1026798
18:00−11ю5128267 0.0 1024522
21:00−12ю6148783 0.0 1023601